[[{"header":{"parameterUnit":"m.s-1","parameterCategory":1,"la1":30.2991,"la2":30.254,"lo1":-89.0895,"lo2":-89.0444,"dy":0.0017,"dx":0.0017,"nx":28,"ny":28,"refTime":"2024-12-18T09:00:00:Z","depth":0,"parameterNumber":2,"parameterNumberName":"U-component_of_WINDS"},"data":[0,0,0,0,0,0,0,0,0,0,0,0,0,0,0,0,0,0,0,0,0,0,0,0,0,0,0,0,0,0,0,0,0,0,0,0,0,0,0,0,0,0,0,0,0,0,0,0,0,0,0,0,0,0,0,0,0,0,1.0325,1.0325,0,1.0358,1.0359,1.0359,1.0341,1.034,1.0339,1.0338,1.0374,1.0375,1.0377,0,0,0,0,0,0,0,0,0,0,0,0,0,1.0246,1.0248,1.0325,1.0325,1.0325,1.0358,1.0359,1.0359,1.0341,1.034,1.0339,1.0338,1.0373,1.0375,1.0377,0,0,0,0,0,0,0,0,0,0,0,0,0,1.028,1.0248,1.0325,1.0321,1.032,1.0358,1.0359,1.0359,1.0342,1.034,1.0339,1.0338,1.0372,1.0375,1.0378,1.0421,0,0,1.0386,1.0387,0,0,0,0,0,0,0,0,1.0278,1.0283,1.0321,1.0321,1.0321,1.0344,1.0344,1.038,1.0342,1.0334,1.0338,1.0337,1.0365,1.0368,1.0377,1.0423,1.0424,1.0386,1.0388,1.0389,1.0389,0,0,0,0,0,0,0,1.0276,1.0281,1.0338,1.0321,1.0321,1.0317,1.0321,1.0351,1.0356,1.0334,1.0333,1.0337,1.0365,1.0375,1.0378,1.0425,1.0386,1.0388,1.039,1.0391,1.0508,1.051,0,0,0,0,0,0,1.0274,1.028,1.0337,1.0339,1.0296,1.032,1.0324,1.0338,1.0356,1.0358,1.0338,1.0336,1.0371,1.0375,1.0379,1.0432,1.0389,1.0391,1.0393,1.0507,1.0509,1.051,0,0,0,0,0,0,1.0272,1.0279,1.0335,1.0309,1.0316,1.0323,1.0339,1.0339,1.0349,1.0359,1.036,1.0347,1.037,1.0376,1.0411,1.0433,1.0392,1.0395,1.0505,1.0507,1.0509,1.0537,0,0,0,0,0,0,1.027,1.0278,1.0295,1.0309,1.0317,1.0366,1.034,1.0341,1.0354,1.0352,1.0368,1.037,1.0369,1.0407,1.0414,1.0436,1.0397,1.0503,1.0506,1.0509,1.0534,1.054,1.0545,0,0,0,0,0,1.0267,1.0301,1.0296,1.0303,1.0338,1.0367,1.0372,1.0371,1.0356,1.0372,1.0379,1.0369,1.0429,1.0411,1.0418,1.0441,1.0502,1.0505,1.0509,1.0531,1.0538,1.0544,0,0,0,0,0,0,1.0289,1.0303,1.0297,1.0337,1.0351,1.0364,1.0385,1.0378,1.0397,1.0394,1.0393,1.0397,1.0433,1.0441,1.042,1.0485,1.0463,1.0468,1.0478,1.0485,1.049,1.0487,1.0399,0,0,0,0,0,1.0298,1.0321,1.0332,1.0366,1.0374,1.0378,1.0391,1.0389,1.0404,1.041,1.0419,1.0434,1.0456,1.0471,1.0492,1.0535,1.0539,1.0555,1.056,1.0564,1.0569,1.0592,1.0599,1.0521,1.0521,1.0521,0,0,1.0317,1.0328,1.0343,1.0371,1.0381,1.0405,1.0383,1.0409,1.0427,1.0414,1.0448,1.0455,1.0472,1.0511,1.0529,1.0519,1.0591,1.0569,1.0572,1.0574,1.0596,1.0604,1.061,1.0524,1.0523,1.0523,0,0,1.0365,1.0376,1.0405,1.0417,1.0433,1.0437,1.0444,1.0459,1.0463,1.0497,1.0488,1.0509,1.0547,1.056,1.0571,1.0625,1.0617,1.0632,1.0659,1.0682,1.0689,1.0694,1.0713,1.072,1.0636,1.0636,1.0636,0,1.0387,1.0423,1.0421,1.0448,1.0461,1.045,1.048,1.0492,1.0515,1.0524,1.0512,1.0561,1.0571,1.0613,1.0627,1.0636,1.0644,1.063,1.0688,1.0693,1.0698,1.0717,1.0724,1.0638,1.0638,1.0638,1.0637,0,1.0449,1.0474,1.0496,1.0518,1.0534,1.0562,1.0565,1.0581,1.0578,1.0583,1.0618,1.063,1.0654,1.0664,1.0661,1.0706,1.0699,1.0688,1.0666,1.0707,1.0725,1.0732,1.064,1.064,1.0639,1.0639,0,0,1.051,1.0532,1.054,1.0551,1.0569,1.0588,1.0617,1.064,1.0653,1.067,1.0694,1.0727,1.0716,1.0729,1.0728,1.0749,1.079,1.0735,1.0735,1.0744,1.0841,1.0849,1.0857,1.0785,1.0787,1.0788,1.0839,0,1.0559,1.0608,1.0608,1.0654,1.0677,1.0668,1.0692,1.0707,1.0712,1.0733,1.0739,1.0762,1.0747,1.0754,1.0774,1.0781,1.081,1.0777,1.0808,1.0809,1.0803,1.0866,1.0875,1.0923,1.0846,1.0847,1.0848,0,1.0622,1.0641,1.0689,1.0704,1.0714,1.0736,1.0758,1.0777,1.0794,1.0796,1.0811,1.0807,1.0836,1.0814,1.0855,1.0833,1.0846,1.0851,1.0853,1.0855,1.083,1.087,1.0938,1.0945,1.0859,1.0858,1.0857,0,1.0662,1.0699,1.0732,1.0742,1.0761,1.0777,1.0785,1.08,1.0814,1.0833,1.0842,1.0865,1.0877,1.0894,1.0897,1.0881,1.0938,1.0916,1.0941,1.0941,1.0953,1.0952,1.1024,1.0962,1.0961,1.0961,1.0961,0,1.0716,1.0745,1.0751,1.0771,1.0804,1.0805,1.0837,1.0845,1.0858,1.0881,1.0874,1.0895,1.0897,1.0919,1.0921,1.0955,1.096,1.0963,1.0964,1.0964,1.0963,1.0971,1.0968,1.0963,1.0963,1.0962,1.0962,0,1.0765,1.077,1.0806,1.0821,1.0826,1.085,1.0863,1.0883,1.0888,1.0916,1.0923,1.0931,1.0956,1.0961,1.099,1.0992,1.1032,1.1029,1.1026,1.1026,1.105,1.1048,1.1129,1.114,1.1072,1.1072,1.1073,0,1.0799,1.0822,1.084,1.0854,1.0864,1.0887,1.0901,1.0903,1.0918,1.0939,1.0957,1.0981,1.1001,1.1043,1.1051,1.1074,1.1071,1.1099,1.1075,1.1074,1.1072,1.107,1.1072,1.1103,1.1104,1.1104,1.1105,0,1.0859,1.086,1.0881,1.0903,1.0921,1.0938,1.0955,1.0967,1.0971,1.0989,1.1015,1.103,1.1061,1.1086,1.1109,1.1118,1.1112,1.1112,1.1119,1.1119,1.1117,1.1118,1.1038,1.111,1.111,1.1109,1.1109,1.1109,1.0901,1.0921,1.0937,1.0961,1.0974,1.099,1.1009,1.1017,1.1039,1.1064,1.1063,1.1092,1.1108,1.1139,1.115,1.1172,1.1164,1.1174,1.1176,1.1179,1.1181,1.1114,1.1177,1.1177,1.1176,1.1176,1.1176,0,1.096,1.097,1.0992,1.1016,1.1035,1.1028,1.1046,1.1063,1.1088,1.1104,1.1124,1.1154,1.1178,1.1189,1.1213,1.1229,1.1227,1.1235,1.1234,1.1236,1.1187,1.1179,1.1237,1.1237,1.1237,1.1237,1.1237,1.1237,1.0993,1.1026,1.103,1.107,1.108,1.1108,1.1119,1.1134,1.1146,1.118,1.12,1.1208,1.1222,1.1247,1.1269,1.1272,1.1281,1.129,1.1292,1.1246,1.124,1.1234,1.1226,1.1292,1.1292,1.1339,1.1339,1.1339]},{"header":{"parameterUnit":"m.s-1","parameterCategory":1,"la1":30.2991,"la2":30.254,"lo1":-89.0895,"lo2":-89.0444,"dy":0.0017,"dx":0.0017,"nx":28,"ny":28,"refTime":"2024-12-18T09:00:00:Z","depth":0,"parameterNumber":3,"parameterNumberName":"V-component_of_WINDS"},"data":[0,0,0,0,0,0,0,0,0,0,0,0,0,0,0,0,0,0,0,0,0,0,0,0,0,0,0,0,0,0,0,0,0,0,0,0,0,0,0,0,0,0,0,0,0,0,0,0,0,0,0,0,0,0,0,0,0,0,0.9194,0.9194,0,0.9155,0.9155,0.9154,0.9168,0.9169,0.917,0.9171,0.9123,0.9121,0.9119,0,0,0,0,0,0,0,0,0,0,0,0,0,0.9274,0.9272,0.9194,0.9194,0.9193,0.9155,0.9155,0.9154,0.9168,0.9169,0.917,0.9171,0.9124,0.9122,0.9119,0,0,0,0,0,0,0,0,0,0,0,0,0,0.9237,0.9272,0.9194,0.9196,0.9196,0.9155,0.9155,0.9154,0.9168,0.9169,0.9171,0.9172,0.9125,0.9122,0.9119,0.9072,0,0,0.9109,0.9108,0,0,0,0,0,0,0,0,0.9239,0.9234,0.9196,0.9196,0.9196,0.9168,0.9165,0.9126,0.9168,0.9178,0.9171,0.9173,0.9137,0.9133,0.9122,0.907,0.9068,0.9109,0.9107,0.9106,0.9105,0,0,0,0,0,0,0,0.9242,0.9236,0.9179,0.9196,0.9195,0.9196,0.9192,0.9158,0.915,0.9177,0.9178,0.9174,0.9137,0.9125,0.9121,0.9067,0.9109,0.9106,0.9104,0.9103,0.8973,0.8971,0,0,0,0,0,0,0.9246,0.9238,0.918,0.9177,0.9222,0.9194,0.919,0.9175,0.9151,0.9148,0.9173,0.9175,0.913,0.9125,0.9119,0.9062,0.9106,0.9103,0.9101,0.8974,0.8972,0.8971,0,0,0,0,0,0,0.9247,0.924,0.9181,0.9208,0.9201,0.9191,0.9175,0.9174,0.9163,0.9147,0.9145,0.9163,0.9131,0.9124,0.9084,0.9061,0.9101,0.9098,0.8976,0.8974,0.8971,0.8948,0,0,0,0,0,0,0.925,0.9241,0.9225,0.9208,0.9199,0.9149,0.9174,0.9172,0.9158,0.916,0.9137,0.9135,0.9131,0.9089,0.9081,0.9057,0.9096,0.8978,0.8975,0.8972,0.8951,0.8946,0.8941,0,0,0,0,0,0.9252,0.9219,0.9224,0.9217,0.918,0.9148,0.9143,0.9141,0.9156,0.9139,0.9129,0.9136,0.9065,0.9084,0.9076,0.9051,0.8979,0.8976,0.8972,0.8954,0.8947,0.8941,0,0,0,0,0,0,0.9231,0.9217,0.9222,0.9183,0.9167,0.915,0.9128,0.9134,0.9112,0.9114,0.9111,0.9106,0.9065,0.9054,0.9076,0.9004,0.9024,0.9019,0.9013,0.9006,0.9001,0.9004,0.9093,0,0,0,0,0,0.9222,0.92,0.9187,0.9153,0.9145,0.9138,0.9124,0.9125,0.9107,0.9099,0.9087,0.9067,0.904,0.9022,0.8997,0.895,0.8944,0.8928,0.8923,0.8919,0.8914,0.8886,0.8879,0.8959,0.8959,0.8959,0,0,0.9203,0.9192,0.9178,0.9149,0.9137,0.9111,0.9132,0.9105,0.9085,0.9094,0.9057,0.9046,0.9024,0.898,0.8959,0.8969,0.889,0.8914,0.8911,0.8908,0.8882,0.8874,0.8868,0.8957,0.8957,0.8957,0,0,0.9155,0.9145,0.9116,0.9103,0.9085,0.908,0.9073,0.9055,0.905,0.9012,0.9018,0.8993,0.8948,0.8931,0.8917,0.8861,0.8866,0.8853,0.8826,0.8799,0.8793,0.8787,0.8766,0.8759,0.8848,0.8848,0.8848,0,0.9132,0.9097,0.9099,0.9071,0.9057,0.9067,0.9035,0.9022,0.8995,0.8984,0.8996,0.8938,0.8924,0.8876,0.8862,0.885,0.884,0.8855,0.8794,0.8788,0.8783,0.8763,0.8755,0.8847,0.8847,0.8847,0.8847,0,0.907,0.9045,0.9023,0.8999,0.8983,0.8953,0.8948,0.893,0.8932,0.8925,0.8885,0.8868,0.8839,0.8828,0.8828,0.8779,0.8785,0.8795,0.8816,0.8774,0.8755,0.8747,0.8844,0.8845,0.8845,0.8846,0,0,0.9008,0.8986,0.8977,0.8967,0.8947,0.8926,0.8895,0.8869,0.8854,0.8834,0.8807,0.8768,0.8778,0.8761,0.8759,0.8736,0.8692,0.8749,0.8748,0.8738,0.8635,0.8627,0.8618,0.8695,0.8694,0.8692,0.8636,0,0.8958,0.8908,0.8908,0.886,0.8836,0.8844,0.8817,0.88,0.8793,0.8769,0.8759,0.8732,0.8747,0.8737,0.8714,0.8702,0.8671,0.8706,0.8668,0.8666,0.8673,0.8609,0.8601,0.8548,0.8629,0.8628,0.8627,0,0.8893,0.8874,0.8825,0.8808,0.8797,0.8774,0.8749,0.8727,0.8707,0.8703,0.8685,0.8686,0.8652,0.8674,0.8626,0.865,0.8634,0.8625,0.8623,0.8619,0.8644,0.8602,0.8532,0.8524,0.8615,0.8616,0.8617,0,0.8852,0.8813,0.8779,0.8769,0.8749,0.8731,0.8721,0.8703,0.8687,0.8665,0.8654,0.8626,0.8611,0.8589,0.8582,0.8599,0.8533,0.8555,0.8527,0.8527,0.8513,0.8514,0.8438,0.8503,0.8503,0.8503,0.8503,0,0.8796,0.8765,0.876,0.8739,0.8704,0.8703,0.8667,0.8658,0.8642,0.8617,0.8621,0.8596,0.8589,0.8563,0.8556,0.8517,0.851,0.8504,0.8502,0.8503,0.8504,0.8492,0.8495,0.8501,0.8502,0.8502,0.8502,0,0.8744,0.874,0.8702,0.8686,0.8681,0.8656,0.8641,0.8619,0.8612,0.858,0.8572,0.856,0.8529,0.852,0.8482,0.8478,0.8431,0.8433,0.8439,0.8439,0.8411,0.8414,0.8325,0.8313,0.8386,0.8386,0.8385,0,0.8708,0.8685,0.8667,0.8652,0.8642,0.8617,0.8601,0.8598,0.8581,0.8556,0.8536,0.8507,0.8483,0.8432,0.8418,0.8389,0.839,0.8361,0.8385,0.8386,0.8388,0.839,0.8386,0.8356,0.8355,0.8355,0.8354,0,0.8645,0.8644,0.8623,0.86,0.8581,0.8562,0.8544,0.8531,0.8525,0.8505,0.8475,0.8456,0.8418,0.8387,0.8358,0.8344,0.8347,0.8347,0.8339,0.8339,0.8343,0.834,0.8426,0.8349,0.8349,0.835,0.835,0.835,0.86,0.858,0.8564,0.8539,0.8525,0.8508,0.8487,0.8477,0.8453,0.8424,0.8423,0.8389,0.8368,0.8329,0.8314,0.8285,0.8294,0.8282,0.8279,0.8276,0.8273,0.8348,0.828,0.828,0.828,0.828,0.828,0,0.8537,0.8527,0.8504,0.848,0.846,0.8467,0.8447,0.8428,0.84,0.8381,0.8358,0.8322,0.8292,0.8276,0.8245,0.8226,0.8226,0.8218,0.8219,0.8215,0.8268,0.8278,0.8218,0.8218,0.8218,0.8218,0.8218,0.8218,0.8502,0.8467,0.8464,0.8422,0.8411,0.8381,0.8369,0.8352,0.8337,0.8297,0.8274,0.8264,0.8245,0.8213,0.8185,0.8181,0.8169,0.8159,0.8156,0.8205,0.8212,0.8218,0.8227,0.8157,0.8157,0.8105,0.8104,0.8104]}]]